Погода в Слободзее

Молдова     46°44′35″N   29°41′43″E
темп.,
°C
ветер,
м/с
пор.,
м/с
влажн.,
%
обл.,
%
осадки,
мм/ч
давл.,
гПа
погр.,
м
1 декабря, ср
ср123:00+1зюз36625 0.0 1004112
02:00+1юз61361100 0.0 1004384
05:00+2юз71658100 0.0 1002467
08:00+2зюз7156187 0.0 1003519
11:00+6з712467 0.0 10041032
14:00+8зсз814525 0.0 10051803
17:00+5сз511615 0.0 1007370
20:00+3з116827 0.0 100910
2 декабря, чт
чт223:00+2ююз346953 0.0 101052
02:00+2ю487059 0.0 1009141
05:00+2ю49825 0.0 1008172
08:00+2ю478960 0.0 1009166
11:00+8ююз710636 0.0 1008578
14:00+11юз611496 0.0 1006552
17:00+8ююз366198 0.0 1007115
20:00+6ю477094 0.0 1007127
3 декабря, пт
пт323:00+6ю4772100 0.0 1007129
02:00+6ююв497268 0.0 1006188
05:00+5ююв410905 0.0 1005212
08:00+6ю511936 0.0 1005276
11:00+11ююз7145734 0.0 1004551
14:00+14ююз6144095 0.0 1003838
17:00+9зюз3460100 0.0 100660
20:00+7сз6117883 0.0 1009470
4 декабря, сб
сб423:00+4ссз61185100 0.1 1013583
02:00+4ссз5869100 0.4 1014717
05:00+3ссз4768100 0.0 1015417
08:00+3с3567100 0.0 1016428
11:00+5св345667 0.0 1016569
14:00+6всв23465 0.0 1014797
17:00+4в34575 0.0 101461
20:00+3в33665 0.0 101458
5 декабря, вс
вс523:00+2вюв2373100 0.0 101446
02:00+2вюв358099 0.0 101395
05:00+3вюв248185 0.0 1012102
08:00+4вюв3786100 0.0 1012207
11:00+7юв5989100 0.0 1011390
14:00+8ююв4986100 0.0 1010500
17:00+7ююв359281 0.0 101098
20:00+8ююв3593100 0.1 1011136